Weather History for KEGI - March, 2013

Change the Weather History Date:

Sunday, March 24, 2013

  Actual Average Record
Temperature  
Mean Temperature 68 °F -  
Max Temperature 82 °F - - ()
Min Temperature 51 °F - - ()
Cooling Degree Days 3    
Growing Degree Days 18 (Base 50)    
Moisture  
Dew Point 62 °F    
Average Humidity 76    
Maximum Humidity 100    
Minimum Humidity 26    
Precipitation  
Precipitation 0.00 in - - ()
Sea Level Pressure  
Sea Level Pressure 29.62 in    
Wind  
Wind Speed 13 mph (WSW)    
Max Wind Speed 21 mph    
Max Gust Speed 29 mph    
Visibility 8 miles    
Events Rain    
T = Trace of Precipitation, MM = Missing Value Source: NWS Daily Summary

Daily Weather History Graph

Daily Weather History Graph

Search for Another Location

Airport or City:

Trip Planner

Search our weather history database for the weather conditions in past years. The results will help you decide how hot, cold, wet, or windy it might be!

Date:

Astronomy

Mar. 24, 2013 Rise Set
Actual Time 6:44 AM CDT 7:00 PM CDT
Civil Twilight 6:20 AM CDT 7:24 PM CDT
Nautical Twilight 5:52 AM CDT 7:52 PM CDT
Astronomical Twilight 5:24 AM CDT 8:20 PM CDT
Moon 4:36 PM CDT (3/24) 4:44 AM CDT (3/24)
Length of Visible Light 13h 03m
Length of Day
12h 15m
Waxing Gibbous, 92% of the Moon is Illuminated
Mar 24
Waxing Gibbous
Mar 27
Full
Apr 2
Last Quarter
Apr 10
New
Apr 18
First Quarter

Hourly Weather History & Observations

Time (CDT) Temp. Heat Index Dew Point Humidity Pressure Visibility Wind Dir Wind Speed Gust Speed Precip Events Conditions
12:01 AM 66.2 °F - 66.2 °F 100% 29.63 in 5.0 mi South 10.4 mph - N/A   Light Drizzle
12:16 AM 68.0 °F - 68.0 °F 100% 29.62 in 6.0 mi South 11.5 mph - N/A Rain Rain
12:31 AM 68.0 °F - 68.0 °F 100% 29.61 in 5.0 mi South 15.0 mph - N/A Rain Light Rain
12:36 AM 69.8 °F - 69.8 °F 100% 29.61 in 5.0 mi South 13.8 mph - N/A Rain Light Rain
12:58 AM 69.8 °F - 69.8 °F 100% 29.62 in 5.0 mi SSW 17.3 mph 23.0 mph N/A Rain Light Rain
1:08 AM 69.8 °F - 69.8 °F 100% 29.60 in 5.0 mi SSW 18.4 mph 23.0 mph N/A Rain Light Rain
1:58 AM 71.8 °F - 71.8 °F 100% 29.61 in 6.0 mi SSW 17.3 mph - N/A Rain Light Rain
2:08 AM 71.6 °F - 71.6 °F 100% 29.59 in 8.0 mi SW 18.4 mph 27.6 mph N/A Rain Light Rain
2:58 AM 71.8 °F - 71.6 °F 99% 29.59 in 4.0 mi WSW 17.3 mph 23.0 mph N/A Rain Light Rain
3:03 AM 71.6 °F - 71.6 °F 100% 29.58 in 4.0 mi SW 16.1 mph 23.0 mph N/A Rain Light Rain
3:33 AM 71.6 °F - 71.6 °F 100% 29.56 in 5.0 mi SW 13.8 mph 20.7 mph N/A   Overcast
3:58 AM 71.6 °F - 71.2 °F 99% 29.57 in 9.0 mi WSW 13.8 mph 20.7 mph N/A   Overcast
4:18 AM 71.6 °F - 71.6 °F 100% 29.56 in 8.0 mi WSW 12.7 mph - N/A   Overcast
4:58 AM 71.4 °F - 70.3 °F 96% 29.57 in 10.0 mi WSW 16.1 mph 24.2 mph N/A   Overcast
5:33 AM 71.6 °F - 69.8 °F 94% 29.56 in 10.0 mi WSW 15.0 mph 25.3 mph N/A   Overcast
5:58 AM 70.5 °F - 68.7 °F 94% 29.57 in 10.0 mi WSW 12.7 mph - N/A   Mostly Cloudy
6:13 AM 69.8 °F - 68.0 °F 94% 29.56 in 9.0 mi WSW 11.5 mph - N/A   Scattered Clouds
6:14 AM 69.8 °F - 68.0 °F 94% 29.56 in 9.0 mi WSW 11.5 mph - N/A   Light Drizzle
6:19 AM 69.8 °F - 68.0 °F 94% 29.56 in 9.0 mi WSW 11.5 mph - N/A   Light Drizzle
6:22 AM 69.8 °F - 68.0 °F 94% 29.56 in 9.0 mi WSW 13.8 mph - N/A   Mostly Cloudy
6:27 AM 69.8 °F - 68.0 °F 94% 29.56 in 9.0 mi WSW 11.5 mph - N/A   Mostly Cloudy
6:58 AM 70.0 °F - 68.9 °F 96% 29.58 in 7.0 mi WSW 10.4 mph - N/A   Mostly Cloudy
7:03 AM 69.8 °F - 68.0 °F 94% 29.57 in 8.0 mi WSW 10.4 mph - N/A   Mostly Cloudy
7:08 AM 69.8 °F - 68.0 °F 94% 29.57 in 8.0 mi WSW 11.5 mph - N/A   Scattered Clouds
7:13 AM 69.8 °F - 68.0 °F 94% 29.58 in 8.0 mi West 11.5 mph - N/A   Scattered Clouds
7:58 AM 69.8 °F - 65.7 °F 87% 29.60 in 10.0 mi WNW 13.8 mph 19.6 mph N/A   Partly Cloudy
8:58 AM 69.4 °F - 60.1 °F 72% 29.63 in 10.0 mi West 6.9 mph - N/A   Clear
9:58 AM 72.3 °F - 60.3 °F 66% 29.64 in 10.0 mi Calm Calm - N/A   Clear
10:58 AM 76.3 °F - 58.6 °F 54% 29.67 in 10.0 mi West 13.8 mph 17.3 mph N/A   Clear
11:58 AM 78.6 °F - 56.1 °F 46% 29.65 in 10.0 mi West 13.8 mph 20.7 mph N/A   Clear
12:02 PM 78.8 °F - 55.4 °F 44% 29.65 in 10.0 mi NW 15.0 mph 20.7 mph N/A   Clear
12:58 PM 79.5 °F - 56.5 °F 45% 29.63 in 10.0 mi West 10.4 mph - N/A   Clear
1:58 PM 81.3 °F 81.2 °F 56.8 °F 43% 29.62 in 10.0 mi West 9.2 mph - N/A   Clear
2:58 PM 82.2 °F 82.6 °F 60.1 °F 47% 29.60 in 10.0 mi SSW 13.8 mph 21.9 mph N/A   Clear
3:00 PM 82.4 °F 82.9 °F 60.8 °F 48% 29.60 in 10.0 mi WSW 11.5 mph 21.9 mph N/A   Clear
3:29 PM 82.4 °F 82.0 °F 57.2 °F 42% 29.59 in 10.0 mi SW 17.3 mph 21.9 mph N/A   Clear
3:55 PM 82.6 °F 82.3 °F 58.1 °F 43% 29.58 in 10.0 mi SW 18.4 mph 24.2 mph N/A   Scattered Clouds
4:55 PM 81.0 °F 81.1 °F 57.7 °F 45% 29.58 in 10.0 mi West 15.0 mph 23.0 mph N/A   Scattered Clouds
5:58 PM 79.9 °F - 42.1 °F 26% 29.62 in 10.0 mi West 20.7 mph 28.8 mph N/A   Clear
6:58 PM 70.3 °F - 52.7 °F 53% 29.69 in 10.0 mi NW 19.6 mph 28.8 mph N/A   Clear
7:58 PM 64.0 °F - 48.0 °F 56% 29.75 in 10.0 mi WNW 17.3 mph 23.0 mph N/A   Clear
8:58 PM 60.8 °F - 42.8 °F 52% 29.79 in 10.0 mi NW 17.3 mph 24.2 mph N/A   Clear
9:58 PM 57.9 °F - 30.0 °F 35% 29.83 in 10.0 mi WNW 12.7 mph 24.2 mph N/A   Clear
10:58 PM 54.9 °F - 34.7 °F 47% 29.87 in 10.0 mi NNW 12.7 mph 26.5 mph N/A   Clear
11:58 PM 51.1 °F - 33.8 °F 52% 29.90 in 10.0 mi NNW 10.4 mph - N/A   Clear